STARLINK-31542

operational
NORAD ID: 59194 Int'l Des: 2024-045 Owner: SPXS Country: US Constellation: starlink
LEOCIRCULAR

About STARLINK-31542

Description loading...

Live Position

Loading 3D Globe...

Upcoming Passes

Altitude History

Altitude vs Time

uPlot chart will show altitude changes over time

Two-Line Element Set

1 59194U 24045S 25251.11597489 .00010097 00000-0 37596-3 0 9992
2 59194 43.0007 43.2294 0001371 287.5124 72.5578 15.27577099 85244
Epoch: Sep 8, 2025 • Age: 13 hours

Current Status

Altitude 485.9 km
Velocity 7.63 km/s
Sub-Earth Point 38.65°N, 123.59°W
Launch Date Mar 11, 2024
Age 1.4 years
Type internet

Technical Details

Classification Payload
Mass 730.00 kg
Dry Mass 700.00 kg
Total Mass 730.00 kg
Length 0.30 m
Diameter 4.10 m
Span 29.00 m
Shape Box + pan
Manufacturer SPXS
Bus Type Starlink V2M
Phase Status In Orbit
Owner/State SPXS/US

Large Constellations

Loading constellations...